Total_Precipitation_Accumulation
0.17 0.39 0.81 1.27 2.28 2.47 1.68 0.96 0.73 0.62 0.59 0.62 0.60 0.58 0.68 0.91 1.36 2.31 2.21 1.68 1.53 1.84 2.48 3.32 3.65 3.04 2.66 2.61 2.52 2.66 2.63 2.56 2.80 3.02 2.99 2.89 2.96 3.25 3.30 3.22 3.26 3.42 3.39 3.06 2.87 2.63 2.32 2.47 2.52
0.33 0.64 1.11 1.74 2.57 2.19 1.55 0.80 0.56 0.51 0.47 0.53 0.55 0.45 0.48 0.58 0.60 1.04 1.53 1.65 1.50 1.57 1.94 2.48 2.95 2.58 2.39 2.33 2.42 2.51 2.51 2.49 2.64 2.76 2.90 2.95 2.98 3.26 3.42 3.35 3.44 3.59 3.30 3.01 2.79 2.45 2.20 2.24 2.14
0.56 0.94 1.47 2.15 1.80 1.28 1.05 0.59 0.46 0.47 0.58 0.73 0.81 0.56 0.56 0.82 0.77 1.02 1.24 1.26 1.35 1.48 1.75 2.17 2.36 2.30 2.24 2.22 2.41 2.54 2.56 2.50 2.59 2.75 2.86 3.01 3.17 3.31 3.52 3.54 3.62 3.66 3.52 3.16 2.76 2.49 2.28 2.10 1.98
0.70 1.16 1.56 1.71 0.96 0.57 0.53 0.41 0.44 0.54 0.82 0.95 0.93 0.84 0.78 0.85 0.81 0.92 0.93 1.00 1.24 1.54 1.79 1.98 2.11 2.09 2.19 2.18 2.43 2.61 2.71 2.59 2.58 2.79 2.80 2.92 3.22 3.54 3.81 3.77 3.74 3.81 3.64 3.23 2.81 2.46 2.23 2.04 1.96
0.77 1.32 1.83 1.35 0.56 0.38 0.32 0.27 0.32 0.46 0.75 1.00 0.95 1.11 1.27 1.18 0.91 0.84 0.83 1.00 1.18 1.48 1.82 1.94 2.10 2.15 2.33 2.46 2.64 2.77 2.75 2.59 2.55 2.61 2.55 2.70 3.15 3.52 3.76 3.87 3.83 3.78 3.56 3.16 2.75 2.36 2.14 2.01 2.01
1.00 1.62 1.46 0.83 0.51 0.33 0.28 0.25 0.33 0.52 0.75 0.95 1.09 1.28 1.47 1.35 1.06 0.94 0.93 1.13 1.25 1.34 1.70 1.93 2.26 2.34 2.41 2.59 2.94 3.08 2.84 2.69 2.59 2.62 2.51 2.61 2.89 3.31 3.59 3.85 3.86 3.65 3.40 2.93 2.61 2.34 2.14 2.07 2.09
1.02 1.31 0.94 0.53 0.41 0.32 0.29 0.30 0.39 0.53 0.67 0.93 1.21 1.42 1.47 1.57 1.34 1.11 1.23 1.32 1.62 1.41 1.55 1.84 2.24 2.48 2.60 2.72 2.99 3.10 3.07 2.96 2.86 2.80 2.62 2.67 2.89 3.16 3.49 3.82 3.77 3.61 3.43 3.05 2.72 2.41 2.25 2.21 2.18
0.71 0.72 0.50 0.37 0.31 0.26 0.26 0.28 0.37 0.51 0.78 1.02 1.10 1.37 1.57 1.46 1.42 1.39 1.52 1.58 1.76 1.73 1.59 1.68 2.04 2.48 2.61 2.67 2.97 3.19 3.16 3.07 3.05 3.03 2.87 3.06 3.22 3.25 3.42 3.70 3.85 3.69 3.48 3.18 2.98 2.66 2.48 2.45 2.25
0.51 0.61 0.44 0.29 0.22 0.22 0.26 0.32 0.37 0.42 0.63 0.83 0.98 1.05 0.97 1.09 1.39 1.47 1.67 1.87 1.94 1.94 1.91 1.93 1.91 2.04 2.28 2.41 2.72 3.31 3.34 3.25 3.25 3.38 3.45 3.66 3.96 3.93 3.99 3.90 4.10 4.10 3.86 3.71 3.43 3.14 2.79 2.68 2.41
0.41 0.43 0.25 0.15 0.13 0.16 0.20 0.28 0.40 0.50 0.82 1.21 1.29 1.40 1.21 1.31 1.49 1.50 1.56 1.66 1.86 2.01 2.05 2.30 2.14 2.01 2.11 2.15 2.97 3.85 3.75 3.64 3.70 3.84 3.91 4.23 4.38 4.70 4.17 4.50 4.86 5.01 4.92 4.72 4.46 4.24 3.55 2.80 2.35
0.17 0.16 0.12 0.10 0.09 0.09 0.13 0.21 0.23 0.47 0.96 1.43 1.54 1.63 1.55 1.56 1.62 1.66 1.77 1.91 2.06 2.28 2.15 2.14 2.28 2.38 2.43 2.57 2.94 3.45 3.91 3.99 4.05 3.99 3.98 4.25 4.18 4.38 4.42 4.85 5.68 5.82 5.28 4.87 4.98 4.75 3.75 3.19 3.20
0.10 0.09 0.10 0.08 0.08 0.08 0.13 0.20 0.28 0.48 1.03 1.36 1.22 1.19 1.34 1.61 1.75 1.86 2.26 2.53 2.76 2.86 2.83 2.86 2.86 2.89 2.94 2.82 2.83 2.97 3.27 3.35 3.38 3.56 3.64 3.79 4.18 4.37 4.55 4.91 5.00 5.11 4.93 5.21 5.10 4.91 4.22 3.80 3.44
0.08 0.07 0.08 0.08 0.08 0.09 0.15 0.26 0.37 0.55 0.88 0.97 0.88 0.94 1.43 1.70 1.89 2.23 2.49 2.75 3.00 3.36 3.55 4.18 4.14 3.64 3.40 3.22 3.12 2.83 3.05 2.90 2.72 2.92 3.27 3.39 3.68 4.08 4.33 4.25 4.27 4.01 4.25 4.63 4.84 4.39 4.37 4.12 3.97
0.07 0.08 0.11 0.12 0.10 0.11 0.16 0.25 0.54 0.65 0.75 0.87 0.89 1.21 1.69 2.19 2.34 2.63 2.96 3.38 3.66 4.09 4.14 4.42 4.97 4.40 3.80 3.35 3.24 3.06 2.88 2.94 2.81 2.95 2.92 3.21 3.43 3.60 3.76 3.72 3.84 3.73 3.87 4.06 4.12 4.07 4.39 4.33 4.15
0.09 0.13 0.22 0.20 0.16 0.18 0.24 0.48 0.75 0.82 0.79 1.05 1.17 1.43 2.02 2.71 2.65 2.94 3.27 3.77 4.16 4.61 4.78 4.91 5.24 4.98 4.58 4.06 3.58 3.17 2.98 2.81 2.90 3.07 2.89 2.95 3.14 3.26 3.29 3.38 3.45 3.54 3.48 3.61 3.65 3.69 4.00 4.09 4.00
0.12 0.23 0.38 0.31 0.20 0.24 0.34 0.92 1.04 0.88 0.87 1.18 1.41 1.66 2.22 2.93 2.97 3.25 3.72 4.23 4.87 5.26 5.54 5.60 5.32 5.41 5.16 4.61 4.11 3.70 3.48 3.27 3.12 2.99 2.89 2.67 2.72 2.75 2.89 2.85 2.85 2.97 2.98 3.14 3.43 3.48 3.74 4.03 4.12
0.18 0.24 0.35 0.35 0.26 0.26 0.35 0.88 0.93 0.69 0.91 1.20 1.49 1.83 2.21 2.57 3.07 3.65 4.11 4.65 5.52 6.41 6.86 6.65 6.01 5.70 5.34 4.87 4.46 4.35 4.21 3.92 3.56 3.37 3.17 2.99 2.72 2.63 2.73 2.83 2.89 2.58 2.67 2.87 2.79 3.25 3.55 3.90 3.98
0.15 0.19 0.28 0.38 0.29 0.34 0.45 0.57 0.71 0.77 1.01 1.26 1.47 1.67 2.04 2.32 2.72 3.43 4.01 4.65 5.55 6.71 7.43 7.34 6.70 5.95 5.38 5.06 4.76 4.74 4.52 4.15 3.70 3.52 3.42 3.10 2.97 2.72 2.80 2.66 2.49 2.28 2.52 2.91 3.09 3.58 3.65 3.60 3.61
0.09 0.17 0.25 0.32 0.26 0.37 0.48 0.58 0.75 0.92 1.17 1.26 1.38 1.51 1.78 2.09 2.49 3.23 3.91 4.38 4.99 5.74 6.29 6.20 5.61 5.20 4.79 4.31 3.86 3.92 3.86 3.64 3.41 3.23 3.08 3.09 3.00 2.83 2.89 2.61 2.78 2.44 2.50 2.68 2.84 3.20 3.42 3.37 3.34
0.09 0.15 0.21 0.26 0.22 0.24 0.42 0.70 0.86 0.93 1.13 1.14 1.22 1.31 1.51 1.88 2.52 3.31 3.89 4.00 3.97 4.24 4.47 3.98 3.81 3.85 3.57 3.41 3.45 3.45 3.36 3.08 2.93 2.96 3.23 2.91 2.88 2.75 2.56 2.73 2.54 2.51 2.76 2.80 2.95 3.22 3.35 3.30 3.38
0.11 0.14 0.16 0.24 0.24 0.31 0.50 0.94 1.12 1.02 1.07 1.02 1.06 1.29 1.75 2.16 2.59 3.12 3.28 3.24 3.07 3.02 3.01 2.80 2.79 3.13 3.16 3.26 3.35 3.37 3.37 3.21 3.07 2.93 3.11 2.80 2.60 2.55 2.61 2.56 2.64 2.84 2.55 2.81 3.02 3.06 3.33 3.45 3.31
0.10 0.09 0.07 0.11 0.20 0.45 0.64 1.15 1.37 1.27 1.22 0.98 1.10 1.55 2.00 2.30 2.56 2.61 2.17 1.97 2.05 2.12 2.25 2.53 2.65 2.84 2.81 2.99 2.97 2.90 2.69 2.59 2.56 2.56 2.73 2.82 2.55 2.43 2.44 2.57 2.90 3.07 2.80 3.02 2.59 2.77 3.15 3.40 3.34
0.07 0.06 0.05 0.10 0.21 0.49 0.79 1.25 1.53 1.41 1.19 0.98 0.99 1.06 1.44 1.61 1.61 1.55 1.42 1.40 1.58 1.84 2.08 2.43 2.58 2.66 2.62 2.63 2.73 2.92 2.85 2.88 2.78 2.73 3.01 3.04 3.06 2.84 2.51 2.51 2.80 3.00 3.00 3.11 2.94 3.18 2.99 2.94 2.98
0.06 0.08 0.17 0.28 0.45 0.95 1.03 1.14 1.45 1.35 1.14 1.00 0.87 0.80 1.04 1.10 0.97 1.07 1.19 1.40 1.65 1.81 1.89 2.10 2.30 2.55 2.59 2.58 2.65 2.69 2.78 2.99 2.98 2.98 2.85 2.72 2.84 2.82 2.57 2.56 2.90 2.94 2.97 3.15 3.04 3.02 2.90 2.93 2.96
0.06 0.10 0.34 0.72 1.03 1.20 0.90 1.02 1.35 1.03 0.83 0.74 0.62 0.60 0.68 0.75 0.84 1.04 1.19 1.42 1.52 1.59 1.59 1.75 1.84 2.06 2.30 2.40 2.43 2.51 2.67 2.82 2.81 2.90 2.85 2.74 2.52 2.40 2.51 2.66 3.01 2.96 2.95 2.93 3.01 2.95 2.97 3.06 3.09
0.06 0.08 0.18 0.33 0.48 0.69 0.85 1.27 1.37 0.96 0.63 0.50 0.48 0.49 0.53 0.65 0.77 0.88 1.07 1.16 1.22 1.38 1.57 1.74 1.72 1.72 1.80 1.91 2.14 2.29 2.32 2.43 2.48 2.82 2.72 2.68 2.53 2.38 2.48 2.64 2.61 2.60 2.69 2.59 2.91 2.74 2.72 2.86 2.92
0.05 0.05 0.07 0.11 0.18 0.45 0.93 1.21 1.16 0.80 0.61 0.57 0.58 0.63 0.67 0.72 0.85 0.85 0.88 1.09 1.17 1.08 1.17 1.38 1.50 1.60 1.68 1.74 1.95 1.97 1.94 2.05 2.28 2.36 2.23 2.09 2.19 2.30 2.42 2.46 2.52 2.56 2.56 2.61 2.84 2.76 2.78 2.97 2.81
0.06 0.06 0.07 0.10 0.19 0.36 0.77 1.29 1.51 1.19 0.87 0.71 0.76 0.74 0.72 0.73 0.81 0.88 0.91 0.98 1.03 1.02 1.18 1.30 1.41 1.54 1.63 1.64 1.72 1.59 1.70 1.79 2.00 2.10 2.10 2.00 1.94 2.12 2.28 2.35 2.45 2.52 2.48 2.57 2.75 2.61 2.80 2.89 2.79
0.07 0.07 0.09 0.12 0.14 0.23 0.57 0.91 0.93 1.03 0.89 0.69 0.74 0.74 0.70 0.67 0.71 0.84 0.86 0.94 0.97 0.94 1.05 1.24 1.46 1.56 1.48 1.48 1.49 1.58 1.68 1.84 1.93 1.92 1.96 1.98 1.99 2.11 2.24 2.35 2.42 2.43 2.47 2.62 2.72 2.57 2.73 2.72 2.83
0.09 0.10 0.11 0.14 0.17 0.17 0.29 0.50 0.54 0.62 0.76 0.98 0.94 0.76 0.76 0.81 0.79 0.87 0.87 0.89 0.90 0.90 0.96 1.09 1.30 1.47 1.52 1.50 1.59 1.71 1.79 1.88 1.95 1.87 1.95 2.16 2.18 2.21 2.30 2.41 2.49 2.40 2.49 2.65 2.59 2.58 2.65 2.70 2.69